Time,TemperatureF,DewpointF,PressureIn,WindDirection,WindDirectionDegrees,WindSpeedMPH,WindSpeedGustMPH,Humidity,HourlyPrecipIn,Conditions,Clouds,dailyrainin,SolarRadiationWatts/m^2,SoftwareType,DateUTC
2013-01-26 00:01:00,10.0,3.1,30.08,ESE,112,0.0,2.0,73,0.00,,,0.00,0,Wunderground v.1.15,2013-01-26 05:01:00,
2013-01-26 00:11:00,10.0,3.1,30.08,ESE,112,0.0,2.0,73,0.00,,,0.00,0,Wunderground v.1.15,2013-01-26 05:11:00,
2013-01-26 00:21:00,10.0,3.1,30.08,ESE,112,0.0,2.0,73,0.00,,,0.00,0,Wunderground v.1.15,2013-01-26 05:21:00,
2013-01-26 00:31:00,9.9,3.0,30.07,ESE,112,0.0,1.0,73,0.00,,,0.00,0,Wunderground v.1.15,2013-01-26 05:31:00,
2013-01-26 00:36:00,9.7,3.1,30.07,ESE,112,0.0,1.0,74,0.00,,,0.00,0,Wunderground v.1.15,2013-01-26 05:36:00,
2013-01-26 00:46:00,9.3,2.7,30.07,ESE,112,0.0,1.0,74,0.00,,,0.00,0,Wunderground v.1.15,2013-01-26 05:46:00,
2013-01-26 00:56:00,9.3,2.7,30.07,ESE,112,0.0,1.0,74,0.00,,,0.00,0,Wunderground v.1.15,2013-01-26 05:56:00,
2013-01-26 01:06:00,9.3,2.7,30.07,ESE,112,0.0,1.0,74,0.00,,,0.00,0,Wunderground v.1.15,2013-01-26 06:06:00,
2013-01-26 01:16:00,9.3,2.7,30.07,ESE,112,0.0,1.0,74,0.00,,,0.00,0,Wunderground v.1.15,2013-01-26 06:16:00,
2013-01-26 01:26:00,9.3,2.7,30.07,ESE,112,0.0,1.0,74,0.00,,,0.00,0,Wunderground v.1.15,2013-01-26 06:26:00,
2013-01-26 01:31:00,9.2,2.6,30.07,ESE,112,0.0,3.0,74,0.00,,,0.00,0,Wunderground v.1.15,2013-01-26 06:31:00,
2013-01-26 01:41:00,9.2,2.9,30.07,ESE,112,0.0,3.0,75,0.00,,,0.00,0,Wunderground v.1.15,2013-01-26 06:41:00,
2013-01-26 01:46:00,9.3,3.0,30.07,ESE,112,0.0,3.0,75,0.00,,,0.00,0,Wunderground v.1.15,2013-01-26 06:46:00,
2013-01-26 01:56:00,9.3,3.0,30.07,ESE,112,0.0,3.0,75,0.00,,,0.00,0,Wunderground v.1.15,2013-01-26 06:56:00,
2013-01-26 02:01:00,9.5,3.2,30.08,ESE,112,0.0,1.0,75,0.00,,,0.00,0,Wunderground v.1.15,2013-01-26 07:01:00,
2013-01-26 02:11:00,9.3,3.0,30.08,ESE,112,0.0,1.0,75,0.00,,,0.00,0,Wunderground v.1.15,2013-01-26 07:11:00,
2013-01-26 02:21:00,9.2,2.6,30.07,ESE,112,0.0,1.0,74,0.00,,,0.00,0,Wunderground v.1.15,2013-01-26 07:21:00,
2013-01-26 02:31:00,8.8,2.2,30.07,ESE,112,0.0,0.0,74,0.00,,,0.00,0,Wunderground v.1.15,2013-01-26 07:31:00,
2013-01-26 02:36:00,8.6,2.0,30.07,ESE,112,0.0,0.0,74,0.00,,,0.00,0,Wunderground v.1.15,2013-01-26 07:36:00,
2013-01-26 02:46:00,8.1,1.5,30.08,ESE,112,0.0,0.0,74,0.00,,,0.00,0,Wunderground v.1.15,2013-01-26 07:46:00,
2013-01-26 02:56:00,7.7,1.1,30.08,ESE,112,0.0,0.0,74,0.00,,,0.00,0,Wunderground v.1.15,2013-01-26 07:56:00,
2013-01-26 03:06:00,7.4,1.1,30.07,ESE,112,0.0,1.0,75,0.00,,,0.00,0,Wunderground v.1.15,2013-01-26 08:06:00,
2013-01-26 03:16:00,7.2,1.2,30.07,ESE,112,0.0,1.0,76,0.00,,,0.00,0,Wunderground v.1.15,2013-01-26 08:16:00,
2013-01-26 03:21:00,7.0,1.0,30.07,ESE,112,0.0,1.0,76,0.00,,,0.00,0,Wunderground v.1.15,2013-01-26 08:21:00,
2013-01-26 03:31:00,6.9,0.9,30.07,ESE,112,0.0,1.0,76,0.00,,,0.00,0,Wunderground v.1.15,2013-01-26 08:31:00,
2013-01-26 03:36:00,6.7,0.7,30.07,ESE,112,0.0,1.0,76,0.00,,,0.00,0,Wunderground v.1.15,2013-01-26 08:36:00,
2013-01-26 03:46:00,6.5,0.5,30.07,ESE,112,0.0,1.0,76,0.00,,,0.00,0,Wunderground v.1.15,2013-01-26 08:46:00,
2013-01-26 03:56:00,6.5,0.5,30.07,ESE,112,0.0,1.0,76,0.00,,,0.00,0,Wunderground v.1.15,2013-01-26 08:56:00,
2013-01-26 04:11:00,6.0,0.1,30.08,ESE,112,0.0,1.0,76,0.00,,,0.00,0,Wunderground v.1.15,2013-01-26 09:11:00,
2013-01-26 04:21:00,6.0,0.1,30.08,ESE,112,0.0,1.0,76,0.00,,,0.00,0,Wunderground v.1.15,2013-01-26 09:21:00,
2013-01-26 04:26:00,5.8,-0.1,30.08,ESE,112,0.0,1.0,76,0.00,,,0.00,0,Wunderground v.1.15,2013-01-26 09:26:00,
2013-01-26 04:36:00,5.6,-0.6,30.08,ESE,112,0.0,1.0,75,0.00,,,0.00,0,Wunderground v.1.15,2013-01-26 09:36:00,
2013-01-26 04:41:00,5.4,-0.8,30.08,ESE,112,0.0,1.0,75,0.00,,,0.00,0,Wunderground v.1.15,2013-01-26 09:41:00,
2013-01-26 04:51:00,5.2,-1.0,30.08,ESE,112,0.0,1.0,75,0.00,,,0.00,0,Wunderground v.1.15,2013-01-26 09:51:00,
2013-01-26 04:56:00,5.0,-1.2,30.08,ESE,112,0.0,1.0,75,0.00,,,0.00,0,Wunderground v.1.15,2013-01-26 09:56:00,
2013-01-26 05:06:00,4.7,-1.5,30.08,ESE,112,0.0,1.0,75,0.00,,,0.00,0,Wunderground v.1.15,2013-01-26 10:06:00,
2013-01-26 05:16:00,4.3,-1.9,30.09,ESE,112,0.0,1.0,75,0.00,,,0.00,0,Wunderground v.1.15,2013-01-26 10:16:00,
2013-01-26 05:21:00,4.3,-1.9,30.09,ESE,112,0.0,1.0,75,0.00,,,0.00,0,Wunderground v.1.15,2013-01-26 10:21:00,
2013-01-26 05:31:00,4.1,-2.1,30.09,ESE,112,0.0,0.0,75,0.00,,,0.00,0,Wunderground v.1.15,2013-01-26 10:31:00,
2013-01-26 05:36:00,4.1,-2.1,30.09,ESE,112,0.0,0.0,75,0.00,,,0.00,0,Wunderground v.1.15,2013-01-26 10:36:00,
2013-01-26 05:46:00,3.9,-2.3,30.10,ESE,112,0.0,0.0,75,0.00,,,0.00,0,Wunderground v.1.15,2013-01-26 10:46:00,
2013-01-26 05:51:00,3.9,-2.3,30.10,ESE,112,0.0,0.0,75,0.00,,,0.00,0,Wunderground v.1.15,2013-01-26 10:51:00,
2013-01-26 06:01:00,3.7,-2.5,30.10,ESE,112,0.0,0.0,75,0.00,,,0.00,0,Wunderground v.1.15,2013-01-26 11:01:00,
2013-01-26 06:06:00,3.7,-2.5,30.10,ESE,112,0.0,0.0,75,0.00,,,0.00,0,Wunderground v.1.15,2013-01-26 11:06:00,
2013-01-26 06:16:00,3.5,-2.7,30.10,ESE,112,0.0,0.0,75,0.00,,,0.00,0,Wunderground v.1.15,2013-01-26 11:16:00,
2013-01-26 06:21:00,3.5,-2.7,30.10,ESE,112,0.0,0.0,75,0.00,,,0.00,0,Wunderground v.1.15,2013-01-26 11:21:00,
2013-01-26 06:31:00,3.4,-3.0,30.11,ESE,112,0.0,1.0,74,0.00,,,0.00,0,Wunderground v.1.15,2013-01-26 11:31:00,
2013-01-26 06:41:00,3.2,-3.2,30.11,ESE,112,0.0,1.0,74,0.00,,,0.00,0,Wunderground v.1.15,2013-01-26 11:41:00,
2013-01-26 06:51:00,3.0,-3.4,30.12,South,186,0.0,1.0,74,0.00,,,0.00,0,Wunderground v.1.15,2013-01-26 11:51:00,
2013-01-26 07:01:00,3.2,-3.5,30.12,South,186,0.0,3.0,73,0.00,,,0.00,0,Wunderground v.1.15,2013-01-26 12:01:00,
2013-01-26 07:11:00,3.2,-3.8,30.12,South,186,0.0,3.0,72,0.00,,,0.00,0,Wunderground v.1.15,2013-01-26 12:11:00,
2013-01-26 07:21:00,3.2,-3.8,30.12,South,186,0.0,3.0,72,0.00,,,0.00,0,Wunderground v.1.15,2013-01-26 12:21:00,
2013-01-26 07:31:00,3.2,-4.1,30.13,South,186,0.0,3.0,71,0.00,,,0.00,7,Wunderground v.1.15,2013-01-26 12:31:00,
2013-01-26 07:41:00,3.0,-4.6,30.13,South,186,0.0,3.0,70,0.00,,,0.00,9,Wunderground v.1.15,2013-01-26 12:41:00,
2013-01-26 07:46:00,3.2,-4.4,30.14,South,186,0.0,3.0,70,0.00,,,0.00,11,Wunderground v.1.15,2013-01-26 12:46:00,
2013-01-26 07:56:00,3.5,-4.4,30.14,SSW,193,0.0,3.0,69,0.00,,,0.00,12,Wunderground v.1.15,2013-01-26 12:56:00,
2013-01-26 08:01:00,3.5,-4.7,30.14,SSW,193,0.0,3.0,68,0.00,,,0.00,14,Wunderground v.1.15,2013-01-26 13:01:00,
2013-01-26 08:06:00,3.5,-4.7,30.14,SSW,193,0.0,3.0,68,0.00,,,0.00,14,Wunderground v.1.15,2013-01-26 13:06:00,
2013-01-26 08:16:00,3.7,-4.5,30.15,SSW,193,0.0,3.0,68,0.00,,,0.00,16,Wunderground v.1.15,2013-01-26 13:16:00,
2013-01-26 08:21:00,3.7,-4.8,30.15,SSW,193,0.0,3.0,67,0.00,,,0.00,18,Wunderground v.1.15,2013-01-26 13:21:00,
2013-01-26 08:31:00,4.3,-4.9,30.15,WNW,289,1.0,5.0,65,0.00,,,0.00,19,Wunderground v.1.15,2013-01-26 13:31:00,
2013-01-26 08:41:00,4.5,-5.0,30.15,SSE,166,0.0,5.0,64,0.00,,,0.00,77,Wunderground v.1.15,2013-01-26 13:41:00,
2013-01-26 08:51:00,5.2,-5.0,30.15,South,177,1.0,1.0,62,0.00,,,0.00,53,Wunderground v.1.15,2013-01-26 13:51:00,
2013-01-26 08:56:00,5.8,-5.1,30.15,WNW,293,1.0,5.0,60,0.00,,,0.00,51,Wunderground v.1.15,2013-01-26 13:56:00,
2013-01-26 09:11:00,6.5,-5.5,30.15,SW,221,1.0,1.0,57,0.00,,,0.00,58,Wunderground v.1.15,2013-01-26 14:11:00,
2013-01-26 09:21:00,6.7,-5.3,30.15,East,96,1.0,5.0,57,0.00,,,0.00,105,Wunderground v.1.15,2013-01-26 14:21:00,
2013-01-26 09:26:00,7.0,-5.0,30.15,North,358,1.0,5.0,57,0.00,,,0.00,97,Wunderground v.1.15,2013-01-26 14:26:00,
2013-01-26 09:36:00,7.4,-5.0,30.16,WNW,283,1.0,6.0,56,0.00,,,0.00,107,Wunderground v.1.15,2013-01-26 14:36:00,
2013-01-26 09:41:00,7.4,-5.4,30.16,West,271,1.0,6.0,55,0.00,,,0.00,111,Wunderground v.1.15,2013-01-26 14:41:00,
2013-01-26 09:51:00,7.7,-5.5,30.15,WNW,291,2.0,6.0,54,0.00,,,0.00,234,Wunderground v.1.15,2013-01-26 14:51:00,
2013-01-26 10:01:00,8.4,-5.6,30.15,NW,316,1.0,6.0,52,0.00,,,0.00,244,Wunderground v.1.15,2013-01-26 15:01:00,
2013-01-26 10:06:00,8.8,-4.9,30.15,SSW,208,2.0,6.0,53,0.00,,,0.00,315,Wunderground v.1.15,2013-01-26 15:06:00,
2013-01-26 10:16:00,9.9,-5.1,30.16,SSE,162,1.0,6.0,50,0.00,,,0.00,336,Wunderground v.1.15,2013-01-26 15:16:00,
2013-01-26 10:26:00,10.9,-4.1,30.16,SSW,202,1.0,6.0,50,0.00,,,0.00,350,Wunderground v.1.15,2013-01-26 15:26:00,
2013-01-26 10:36:00,12.3,-4.1,30.16,SSW,207,0.0,4.0,47,0.00,,,0.00,323,Wunderground v.1.15,2013-01-26 15:36:00,
2013-01-26 10:41:00,12.3,-4.6,30.16,SW,228,0.0,7.0,46,0.00,,,0.00,353,Wunderground v.1.15,2013-01-26 15:41:00,
2013-01-26 10:51:00,11.9,-4.5,30.16,SSW,195,1.0,7.0,47,0.00,,,0.00,434,Wunderground v.1.15,2013-01-26 15:51:00,
2013-01-26 10:56:00,12.6,-4.3,30.16,WNW,282,1.0,7.0,46,0.00,,,0.00,438,Wunderground v.1.15,2013-01-26 15:56:00,
2013-01-26 11:06:00,12.8,-4.6,30.16,SW,229,1.0,7.0,45,0.00,,,0.00,455,Wunderground v.1.15,2013-01-26 16:06:00,
2013-01-26 11:16:00,13.8,-4.1,30.16,North,0,0.0,7.0,44,0.00,,,0.00,476,Wunderground v.1.15,2013-01-26 16:16:00,
2013-01-26 11:21:00,13.8,-4.1,30.16,West,270,1.0,1.0,44,0.00,,,0.00,478,Wunderground v.1.15,2013-01-26 16:21:00,
2013-01-26 11:31:00,14.4,-3.1,30.16,SE,129,1.0,7.0,45,0.00,,,0.00,526,Wunderground v.1.15,2013-01-26 16:31:00,
2013-01-26 11:36:00,14.6,-4.4,30.16,SE,131,1.0,7.0,42,0.00,,,0.00,533,Wunderground v.1.15,2013-01-26 16:36:00,
2013-01-26 11:46:00,15.4,-3.6,30.16,SE,145,1.0,7.0,42,0.00,,,0.00,548,Wunderground v.1.15,2013-01-26 16:46:00,
2013-01-26 11:56:00,13.8,-6.6,30.16,West,274,1.0,7.0,39,0.00,,,0.00,499,Wunderground v.1.15,2013-01-26 16:56:00,
2013-01-26 12:06:00,14.3,-4.6,30.15,SSW,196,1.0,7.0,42,0.00,,,0.00,519,Wunderground v.1.15,2013-01-26 17:06:00,
2013-01-26 12:16:00,13.6,-6.3,30.15,West,278,2.0,7.0,40,0.00,,,0.00,554,Wunderground v.1.15,2013-01-26 17:16:00,
2013-01-26 12:21:00,13.3,-7.1,30.15,WNW,286,3.0,7.0,39,0.00,,,0.00,555,Wunderground v.1.15,2013-01-26 17:21:00,
2013-01-26 12:31:00,13.1,-6.7,30.15,WNW,282,3.0,3.0,40,0.00,,,0.00,468,Wunderground v.1.15,2013-01-26 17:31:00,
2013-01-26 12:36:00,13.8,-4.6,30.15,ESE,111,2.0,9.0,43,0.00,,,0.00,403,Wunderground v.1.15,2013-01-26 17:36:00,
2013-01-26 12:46:00,13.5,-5.9,30.15,West,266,2.0,9.0,41,0.00,,,0.00,452,Wunderground v.1.15,2013-01-26 17:46:00,
2013-01-26 12:56:00,13.5,-7.4,30.15,West,281,2.0,9.0,38,0.00,,,0.00,506,Wunderground v.1.15,2013-01-26 17:56:00,
2013-01-26 13:11:00,13.6,-8.5,30.15,SSW,207,2.0,11.0,36,0.00,,,0.00,475,Wunderground v.1.15,2013-01-26 18:11:00,
2013-01-26 13:21:00,14.6,-8.1,30.15,NW,307,2.0,2.0,35,0.00,,,0.00,483,Wunderground v.1.15,2013-01-26 18:21:00,
2013-01-26 13:26:00,14.8,-7.4,30.15,North,358,1.0,11.0,36,0.00,,,0.00,492,Wunderground v.1.15,2013-01-26 18:26:00,
2013-01-26 13:36:00,14.9,-7.3,30.15,ENE,68,2.0,11.0,36,0.00,,,0.00,450,Wunderground v.1.15,2013-01-26 18:36:00,
2013-01-26 13:41:00,15.1,-7.1,30.15,NNE,27,2.0,2.0,36,0.00,,,0.00,329,Wunderground v.1.15,2013-01-26 18:41:00,
2013-01-26 13:51:00,14.6,-7.0,30.15,WNW,284,1.0,1.0,37,0.00,,,0.00,153,Wunderground v.1.15,2013-01-26 18:51:00,
2013-01-26 14:01:00,14.3,-6.7,30.16,North,352,1.0,1.0,38,0.00,,,0.00,169,Wunderground v.1.15,2013-01-26 19:01:00,
2013-01-26 14:11:00,14.6,-6.4,30.16,North,0,1.0,1.0,38,0.00,,,0.00,156,Wunderground v.1.15,2013-01-26 19:11:00,
2013-01-26 14:21:00,14.1,-7.4,30.16,SSW,200,2.0,2.0,37,0.00,,,0.00,125,Wunderground v.1.15,2013-01-26 19:21:00,
2013-01-26 14:31:00,14.0,-7.0,30.16,SW,233,2.0,2.0,38,0.00,,,0.00,190,Wunderground v.1.15,2013-01-26 19:31:00,
2013-01-26 14:36:00,14.4,-6.6,30.16,SSW,205,1.0,11.0,38,0.00,,,0.00,172,Wunderground v.1.15,2013-01-26 19:36:00,
2013-01-26 14:46:00,14.0,-6.5,30.17,SW,235,1.0,11.0,39,0.00,,,0.00,162,Wunderground v.1.15,2013-01-26 19:46:00,
2013-01-26 14:56:00,14.1,-6.4,30.17,SW,217,1.0,11.0,39,0.00,,,0.00,163,Wunderground v.1.15,2013-01-26 19:56:00,
2013-01-26 15:06:00,14.4,-6.6,30.17,WNW,288,1.0,9.0,38,0.00,,,0.00,146,Wunderground v.1.15,2013-01-26 20:06:00,
2013-01-26 15:16:00,14.1,-6.9,30.18,SSW,205,1.0,9.0,38,0.00,,,0.00,88,Wunderground v.1.15,2013-01-26 20:16:00,
2013-01-26 15:26:00,14.0,-5.9,30.18,SE,131,1.0,9.0,40,0.00,,,0.00,79,Wunderground v.1.15,2013-01-26 20:26:00,
2013-01-26 15:36:00,13.6,-6.8,30.18,WNW,282,1.0,10.0,39,0.00,,,0.00,65,Wunderground v.1.15,2013-01-26 20:36:00,
2013-01-26 15:41:00,13.6,-6.3,30.18,WNW,282,1.0,10.0,40,0.00,,,0.00,67,Wunderground v.1.15,2013-01-26 20:41:00,
2013-01-26 15:51:00,13.3,-7.1,30.18,NNE,18,1.0,10.0,39,0.00,,,0.00,58,Wunderground v.1.15,2013-01-26 20:51:00,
2013-01-26 15:56:00,13.1,-7.3,30.18,WNW,302,0.0,10.0,39,0.00,,,0.00,51,Wunderground v.1.15,2013-01-26 20:56:00,
2013-01-26 16:06:00,13.1,-6.2,30.18,WNW,287,0.0,5.0,41,0.00,,,0.00,46,Wunderground v.1.15,2013-01-26 21:06:00,
2013-01-26 16:16:00,12.8,-5.0,30.19,East,80,1.0,5.0,44,0.00,,,0.00,35,Wunderground v.1.15,2013-01-26 21:16:00,
2013-01-26 16:26:00,12.8,-3.7,30.19,WSW,243,0.0,2.0,47,0.00,,,0.00,25,Wunderground v.1.15,2013-01-26 21:26:00,
2013-01-26 16:36:00,12.4,-3.6,30.20,SSE,154,1.0,7.0,48,0.00,,,0.00,14,Wunderground v.1.15,2013-01-26 21:36:00,
2013-01-26 16:41:00,12.3,-3.3,30.20,SSE,154,1.0,1.0,49,0.00,,,0.00,12,Wunderground v.1.15,2013-01-26 21:41:00,
2013-01-26 16:51:00,11.9,-2.4,30.20,SSE,154,0.0,7.0,52,0.00,,,0.00,9,Wunderground v.1.15,2013-01-26 21:51:00,
2013-01-26 16:56:00,11.7,-2.2,30.20,SSE,154,0.0,7.0,53,0.00,,,0.00,5,Wunderground v.1.15,2013-01-26 21:56:00,
2013-01-26 17:06:00,11.6,-1.5,30.20,SSE,154,0.0,10.0,55,0.00,,,0.00,0,Wunderground v.1.15,2013-01-26 22:06:00,
2013-01-26 17:16:00,11.4,-1.3,30.21,SSE,154,0.0,10.0,56,0.00,,,0.00,0,Wunderground v.1.15,2013-01-26 22:16:00,
2013-01-26 17:26:00,11.4,-0.9,30.21,SSE,154,0.0,10.0,57,0.00,,,0.00,0,Wunderground v.1.15,2013-01-26 22:26:00,
2013-01-26 17:31:00,11.4,-0.9,30.21,SSE,154,0.0,3.0,57,0.00,,,0.00,0,Wunderground v.1.15,2013-01-26 22:31:00,
2013-01-26 17:41:00,11.1,-0.8,30.21,SSE,154,0.0,3.0,58,0.00,,,0.00,0,Wunderground v.1.15,2013-01-26 22:41:00,
2013-01-26 17:51:00,10.9,-1.0,30.22,SSE,154,0.0,3.0,58,0.00,,,0.00,0,Wunderground v.1.15,2013-01-26 22:51:00,
2013-01-26 18:01:00,10.7,-0.5,30.22,SSE,154,1.0,1.0,60,0.00,,,0.00,0,Wunderground v.1.15,2013-01-26 23:01:00,
2013-01-26 18:11:00,10.9,-0.6,30.22,SSW,197,0.0,3.0,59,0.00,,,0.00,0,Wunderground v.1.15,2013-01-26 23:11:00,
2013-01-26 18:21:00,11.1,-0.5,30.22,SSW,197,0.0,3.0,59,0.00,,,0.00,0,Wunderground v.1.15,2013-01-26 23:21:00,
2013-01-26 18:26:00,11.1,-0.5,30.22,SSW,197,0.0,3.0,59,0.00,,,0.00,0,Wunderground v.1.15,2013-01-26 23:26:00,
2013-01-26 18:36:00,10.9,-0.6,30.22,SSW,197,0.0,3.0,59,0.00,,,0.00,0,Wunderground v.1.15,2013-01-26 23:36:00,
2013-01-26 18:41:00,10.7,-0.8,30.22,SSW,197,0.0,3.0,59,0.00,,,0.00,0,Wunderground v.1.15,2013-01-26 23:41:00,
2013-01-26 18:51:00,10.7,-0.8,30.23,SSW,197,0.0,3.0,59,0.00,,,0.00,0,Wunderground v.1.15,2013-01-26 23:51:00,
2013-01-26 18:56:00,10.7,-0.8,30.23,SSW,197,0.0,3.0,59,0.00,,,0.00,0,Wunderground v.1.15,2013-01-26 23:56:00,
2013-01-26 19:06:00,10.7,-0.5,30.23,SSW,197,0.0,1.0,60,0.00,,,0.00,0,Wunderground v.1.15,2013-01-27 00:06:00,
2013-01-26 19:16:00,10.5,-0.7,30.23,SSW,197,0.0,1.0,60,0.00,,,0.00,0,Wunderground v.1.15,2013-01-27 00:16:00,
2013-01-26 19:21:00,10.5,-0.3,30.23,SSW,197,0.0,1.0,61,0.00,,,0.00,0,Wunderground v.1.15,2013-01-27 00:21:00,
2013-01-26 19:31:00,10.7,-0.1,30.24,SSW,197,0.0,0.0,61,0.00,,,0.00,0,Wunderground v.1.15,2013-01-27 00:31:00,
2013-01-26 19:41:00,11.1,0.3,30.24,SSW,197,0.0,0.0,61,0.00,,,0.00,0,Wunderground v.1.15,2013-01-27 00:41:00,
2013-01-26 19:51:00,11.2,0.4,30.24,SSW,197,0.0,0.0,61,0.00,,,0.00,0,Wunderground v.1.15,2013-01-27 00:51:00,
2013-01-26 19:56:00,11.4,0.5,30.24,SSW,197,0.0,0.0,61,0.00,,,0.00,0,Wunderground v.1.15,2013-01-27 00:56:00,
2013-01-26 20:06:00,11.6,1.1,30.24,SSW,197,0.0,2.0,62,0.00,,,0.00,0,Wunderground v.1.15,2013-01-27 01:06:00,
2013-01-26 20:16:00,11.6,1.1,30.24,SSW,197,0.0,2.0,62,0.00,,,0.00,0,Wunderground v.1.15,2013-01-27 01:16:00,
2013-01-26 20:26:00,11.6,1.4,30.24,SSW,197,0.0,2.0,63,0.00,,,0.00,0,Wunderground v.1.15,2013-01-27 01:26:00,
2013-01-26 20:31:00,11.6,1.4,30.24,SSW,197,0.0,2.0,63,0.00,,,0.00,0,Wunderground v.1.15,2013-01-27 01:31:00,
2013-01-26 20:41:00,11.6,1.4,30.24,SSW,197,1.0,2.0,63,0.00,,,0.00,0,Wunderground v.1.15,2013-01-27 01:41:00,
2013-01-26 20:51:00,11.7,1.9,30.24,SSW,197,0.0,2.0,64,0.00,,,0.00,0,Wunderground v.1.15,2013-01-27 01:51:00,
2013-01-26 21:01:00,11.7,1.9,30.24,SSW,197,0.0,2.0,64,0.00,,,0.00,0,Wunderground v.1.15,2013-01-27 02:01:00,
2013-01-26 21:06:00,11.7,1.9,30.24,SSW,197,0.0,2.0,64,0.00,,,0.00,0,Wunderground v.1.15,2013-01-27 02:06:00,
2013-01-26 21:16:00,11.6,1.8,30.25,SSW,197,0.0,2.0,64,0.00,,,0.00,0,Wunderground v.1.15,2013-01-27 02:16:00,
2013-01-26 21:26:00,11.6,1.8,30.25,SSW,197,0.0,2.0,64,0.00,,,0.00,0,Wunderground v.1.15,2013-01-27 02:26:00,
2013-01-26 21:36:00,11.2,1.7,30.25,SSW,197,0.0,0.0,65,0.00,,,0.00,0,Wunderground v.1.15,2013-01-27 02:36:00,
2013-01-26 21:46:00,11.2,1.7,30.26,SSW,197,0.0,0.0,65,0.00,,,0.00,0,Wunderground v.1.15,2013-01-27 02:46:00,
2013-01-26 21:56:00,11.2,2.0,30.26,SSW,197,0.0,0.0,66,0.00,,,0.00,0,Wunderground v.1.15,2013-01-27 02:56:00,
2013-01-26 22:01:00,11.2,2.0,30.26,SSW,197,0.0,2.0,66,0.00,,,0.00,0,Wunderground v.1.15,2013-01-27 03:01:00,
2013-01-26 22:06:00,11.2,2.4,30.26,SSW,197,0.0,2.0,67,0.00,,,0.00,0,Wunderground v.1.15,2013-01-27 03:06:00,
2013-01-26 22:16:00,11.2,2.4,30.26,SSW,197,0.0,2.0,67,0.00,,,0.00,0,Wunderground v.1.15,2013-01-27 03:16:00,
2013-01-26 22:26:00,11.6,3.1,30.26,SSW,197,0.0,2.0,68,0.00,,,0.00,0,Wunderground v.1.15,2013-01-27 03:26:00,
2013-01-26 22:36:00,11.9,3.4,30.27,SSW,197,0.0,0.0,68,0.00,,,0.00,0,Wunderground v.1.15,2013-01-27 03:36:00,
2013-01-26 22:46:00,12.1,3.6,30.27,SSW,197,0.0,0.0,68,0.00,,,0.00,0,Wunderground v.1.15,2013-01-27 03:46:00,
2013-01-26 22:56:00,12.4,3.5,30.27,SSW,197,0.0,1.0,67,0.00,,,0.00,0,Wunderground v.1.15,2013-01-27 03:56:00,
2013-01-26 23:11:00,12.9,3.7,30.27,SSW,197,0.0,1.0,66,0.00,,,0.00,0,Wunderground v.1.15,2013-01-27 04:11:00,
2013-01-26 23:21:00,13.3,3.7,30.27,SSW,197,0.0,1.0,65,0.00,,,0.00,0,Wunderground v.1.15,2013-01-27 04:21:00,
2013-01-26 23:31:00,13.8,4.2,30.28,SSW,197,0.0,2.0,65,0.00,,,0.00,0,Wunderground v.1.15,2013-01-27 04:31:00,
2013-01-26 23:36:00,14.1,4.1,30.28,SSW,195,0.0,2.0,64,0.00,,,0.00,0,Wunderground v.1.15,2013-01-27 04:36:00,
2013-01-26 23:46:00,14.3,4.0,30.28,ESE,117,1.0,2.0,63,0.00,,,0.00,0,Wunderground v.1.15,2013-01-27 04:46:00,
2013-01-26 23:51:00,14.3,4.0,30.28,ESE,117,1.0,1.0,63,0.00,,,0.00,0,Wunderground v.1.15,2013-01-27 04:51:00,